Year,Month,Day,Hour,Minute,Value (Times are PST for temperature in C)
2006,08,06,00,00,15.30
2006,08,06,00,01,15.30
2006,08,06,00,02,15.20
2006,08,06,00,03,15.20
2006,08,06,00,04,15.10
2006,08,06,00,05,15.10
2006,08,06,00,06,15.00
2006,08,06,00,07,15.00
2006,08,06,00,08,14.90
2006,08,06,00,09,14.90
2006,08,06,00,10,14.90
2006,08,06,00,11,14.90
2006,08,06,00,12,14.90
2006,08,06,00,13,14.90
2006,08,06,00,14,14.90
2006,08,06,00,15,14.90
2006,08,06,00,16,14.90
2006,08,06,00,17,14.80
2006,08,06,00,18,14.80
2006,08,06,00,19,14.80
2006,08,06,00,20,14.80
2006,08,06,00,21,14.80
2006,08,06,00,22,14.80
2006,08,06,00,23,14.80
2006,08,06,00,24,14.80
2006,08,06,00,25,14.80
2006,08,06,00,26,14.80
2006,08,06,00,27,14.80
2006,08,06,00,28,14.80
2006,08,06,00,29,14.80
2006,08,06,00,30,14.80
2006,08,06,00,31,14.80
2006,08,06,00,32,14.80
2006,08,06,00,33,14.80
2006,08,06,00,34,14.80
2006,08,06,00,35,14.80
2006,08,06,00,36,14.80
2006,08,06,00,37,14.80
2006,08,06,00,38,14.80
2006,08,06,00,39,14.80
2006,08,06,00,40,14.80
2006,08,06,00,41,14.80
2006,08,06,00,42,14.80
2006,08,06,00,43,14.90
2006,08,06,00,44,14.90
2006,08,06,00,45,14.90
2006,08,06,00,46,14.90
2006,08,06,00,47,14.90
2006,08,06,00,48,14.90
2006,08,06,00,49,14.90
2006,08,06,00,50,14.90
2006,08,06,00,51,14.90
2006,08,06,00,52,14.90
2006,08,06,00,53,14.90
2006,08,06,00,54,14.90
2006,08,06,00,55,14.90
2006,08,06,00,56,14.90
2006,08,06,00,57,14.90
2006,08,06,00,58,14.90
2006,08,06,00,59,14.90
2006,08,06,01,00,14.90
2006,08,06,01,01,14.80
2006,08,06,01,02,14.80
2006,08,06,01,03,14.80
2006,08,06,01,04,14.80
2006,08,06,01,05,14.80
2006,08,06,01,06,14.80
2006,08,06,01,07,14.70
2006,08,06,01,08,14.60
2006,08,06,01,09,14.60
2006,08,06,01,10,14.50
2006,08,06,01,11,14.40
2006,08,06,01,12,14.30
2006,08,06,01,13,14.20
2006,08,06,01,14,14.20
2006,08,06,01,15,14.10
2006,08,06,01,16,14.00
2006,08,06,01,17,13.90
2006,08,06,01,18,13.90
2006,08,06,01,19,13.80
2006,08,06,01,20,13.70
2006,08,06,01,21,13.70
2006,08,06,01,22,13.70
2006,08,06,01,23,13.60
2006,08,06,01,24,13.60
2006,08,06,01,25,13.50
2006,08,06,01,26,13.50
2006,08,06,01,27,13.50
2006,08,06,01,28,13.40
2006,08,06,01,29,13.40
2006,08,06,01,30,13.30
2006,08,06,01,31,13.30
2006,08,06,01,32,13.30
2006,08,06,01,33,13.30
2006,08,06,01,34,13.30
2006,08,06,01,35,13.30
2006,08,06,01,36,13.20
2006,08,06,01,37,13.20
2006,08,06,01,38,13.20
2006,08,06,01,39,13.20
2006,08,06,01,40,13.20
2006,08,06,01,41,13.30
2006,08,06,01,42,13.30
2006,08,06,01,43,13.30
2006,08,06,01,44,13.30
2006,08,06,01,45,13.30
2006,08,06,01,46,13.30
2006,08,06,01,47,13.30
2006,08,06,01,48,13.30
2006,08,06,01,49,13.30
2006,08,06,01,50,13.30
2006,08,06,01,51,13.30
2006,08,06,01,52,13.30
2006,08,06,01,53,13.30
2006,08,06,01,54,13.30
2006,08,06,01,55,13.30
2006,08,06,01,56,13.20
2006,08,06,01,57,13.10
2006,08,06,01,58,13.10
2006,08,06,01,59,13.00
2006,08,06,02,00,12.90
2006,08,06,02,01,12.80
2006,08,06,02,02,12.80
2006,08,06,02,03,12.80
2006,08,06,02,04,12.70
2006,08,06,02,05,12.70
2006,08,06,02,06,12.70
2006,08,06,02,07,12.70
2006,08,06,02,08,12.70
2006,08,06,02,09,12.70
2006,08,06,02,10,12.60
2006,08,06,02,11,12.60
2006,08,06,02,12,12.60
2006,08,06,02,13,12.60
2006,08,06,02,14,12.60
2006,08,06,02,15,12.60
2006,08,06,02,16,12.60
2006,08,06,02,17,12.50
2006,08,06,02,18,12.50
2006,08,06,02,19,12.50
2006,08,06,02,20,12.40
2006,08,06,02,21,12.30
2006,08,06,02,22,12.30
2006,08,06,02,23,12.30
2006,08,06,02,24,12.30
2006,08,06,02,25,12.20
2006,08,06,02,26,12.20
2006,08,06,02,27,12.20
2006,08,06,02,28,12.20
2006,08,06,02,29,12.20
2006,08,06,02,30,12.20
2006,08,06,02,31,12.10
2006,08,06,02,32,12.10
2006,08,06,02,33,12.10
2006,08,06,02,34,12.10
2006,08,06,02,35,12.10
2006,08,06,02,36,12.10
2006,08,06,02,37,12.10
2006,08,06,02,38,12.10
2006,08,06,02,39,12.10
2006,08,06,02,40,12.20
2006,08,06,02,41,12.20
2006,08,06,02,42,12.20
2006,08,06,02,43,12.20
2006,08,06,02,44,12.20
2006,08,06,02,45,12.30
2006,08,06,02,46,12.30
2006,08,06,02,47,12.30
2006,08,06,02,48,12.30
2006,08,06,02,49,12.30
2006,08,06,02,50,12.30
2006,08,06,02,51,12.30
2006,08,06,02,52,12.30
2006,08,06,02,53,12.30
2006,08,06,02,54,12.30
2006,08,06,02,55,12.30
2006,08,06,02,56,12.30
2006,08,06,02,57,12.30
2006,08,06,02,58,12.30
2006,08,06,02,59,12.20
2006,08,06,03,00,12.20
2006,08,06,03,01,12.20
2006,08,06,03,02,12.20
2006,08,06,03,03,12.10
2006,08,06,03,04,12.10
2006,08,06,03,05,12.10
2006,08,06,03,06,12.10
2006,08,06,03,07,12.10
2006,08,06,03,08,12.00
2006,08,06,03,09,12.00
2006,08,06,03,10,12.00
2006,08,06,03,11,11.90
2006,08,06,03,12,11.90
2006,08,06,03,13,11.90
2006,08,06,03,14,11.90
2006,08,06,03,15,11.90
2006,08,06,03,16,11.90
2006,08,06,03,17,12.00
2006,08,06,03,18,12.00
2006,08,06,03,19,12.00
2006,08,06,03,20,12.00
2006,08,06,03,21,12.00
2006,08,06,03,22,12.00
2006,08,06,03,23,12.00
2006,08,06,03,24,12.00
2006,08,06,03,25,11.90
2006,08,06,03,26,11.90
2006,08,06,03,27,11.80
2006,08,06,03,28,11.80
2006,08,06,03,29,11.70
2006,08,06,03,30,11.60
2006,08,06,03,31,11.60
2006,08,06,03,32,11.50
2006,08,06,03,33,11.40
2006,08,06,03,34,11.40
2006,08,06,03,35,11.40
2006,08,06,03,36,11.40
2006,08,06,03,37,11.40
2006,08,06,03,38,11.40
2006,08,06,03,39,11.30
2006,08,06,03,40,11.30
2006,08,06,03,41,11.30
2006,08,06,03,42,11.20
2006,08,06,03,43,11.20
2006,08,06,03,44,11.20
2006,08,06,03,45,11.20
2006,08,06,03,46,11.20
2006,08,06,03,47,11.20
2006,08,06,03,48,11.20
2006,08,06,03,49,11.20
2006,08,06,03,50,11.20
2006,08,06,03,51,11.20
2006,08,06,03,52,11.20
2006,08,06,03,53,11.20
2006,08,06,03,54,11.20
2006,08,06,03,55,11.30
2006,08,06,03,56,11.30
2006,08,06,03,57,11.30
2006,08,06,03,58,11.40
2006,08,06,03,59,11.40
2006,08,06,04,00,11.40
2006,08,06,04,01,11.40
2006,08,06,04,02,11.40
2006,08,06,04,03,11.40
2006,08,06,04,04,11.40
2006,08,06,04,05,11.40
2006,08,06,04,06,11.40
2006,08,06,04,07,11.60
2006,08,06,04,08,11.60
2006,08,06,04,09,11.60
2006,08,06,04,10,11.60
2006,08,06,04,11,11.60
2006,08,06,04,12,11.60
2006,08,06,04,13,11.60
2006,08,06,04,14,11.60
2006,08,06,04,15,11.60
2006,08,06,04,16,11.60
2006,08,06,04,17,11.60
2006,08,06,04,18,11.60
2006,08,06,04,19,11.60
2006,08,06,04,20,11.60
2006,08,06,04,21,11.60
2006,08,06,04,22,11.60
2006,08,06,04,23,11.70
2006,08,06,04,24,11.70
2006,08,06,04,25,11.80
2006,08,06,04,26,11.80
2006,08,06,04,27,11.80
2006,08,06,04,28,11.90
2006,08,06,04,29,11.90
2006,08,06,04,30,11.90
2006,08,06,04,31,12.00
2006,08,06,04,32,12.00
2006,08,06,04,33,12.00
2006,08,06,04,34,12.00
2006,08,06,04,35,12.00
2006,08,06,04,36,12.00
2006,08,06,04,37,12.00
2006,08,06,04,38,12.00
2006,08,06,04,39,12.00
2006,08,06,04,40,12.00
2006,08,06,04,41,12.00
2006,08,06,04,42,11.90
2006,08,06,04,43,11.90
2006,08,06,04,44,11.90
2006,08,06,04,45,11.90
2006,08,06,04,46,11.80
2006,08,06,04,47,11.80
2006,08,06,04,48,11.80
2006,08,06,04,49,11.80
2006,08,06,04,50,11.80
2006,08,06,04,51,11.80
2006,08,06,04,52,11.90
2006,08,06,04,53,11.90
2006,08,06,04,54,11.90
2006,08,06,04,55,11.90
2006,08,06,04,56,12.00
2006,08,06,04,57,12.00
2006,08,06,04,58,12.00
2006,08,06,04,59,12.00
2006,08,06,05,00,12.00
2006,08,06,05,01,12.00
2006,08,06,05,02,12.10
2006,08,06,05,03,12.10
2006,08,06,05,04,12.10
2006,08,06,05,05,12.10
2006,08,06,05,06,12.20
2006,08,06,05,07,12.20
2006,08,06,05,08,12.20
2006,08,06,05,09,12.20
2006,08,06,05,10,12.10
2006,08,06,05,11,12.00
2006,08,06,05,12,12.00
2006,08,06,05,13,11.80
2006,08,06,05,14,11.80
2006,08,06,05,15,11.60
2006,08,06,05,16,11.60
2006,08,06,05,17,11.50
2006,08,06,05,18,11.40
2006,08,06,05,19,11.40
2006,08,06,05,20,11.40
2006,08,06,05,21,11.30
2006,08,06,05,22,11.30
2006,08,06,05,23,11.20
2006,08,06,05,24,11.20
2006,08,06,05,25,11.10
2006,08,06,05,26,11.10
2006,08,06,05,27,11.10
2006,08,06,05,28,11.10
2006,08,06,05,29,11.10
2006,08,06,05,30,11.10
2006,08,06,05,31,11.10
2006,08,06,05,32,11.10
2006,08,06,05,33,11.10
2006,08,06,05,34,11.10
2006,08,06,05,35,11.10
2006,08,06,05,36,11.10
2006,08,06,05,37,11.10
2006,08,06,05,38,11.10
2006,08,06,05,39,11.10
2006,08,06,05,40,11.10
2006,08,06,05,41,11.10
2006,08,06,05,42,11.10
2006,08,06,05,43,11.10
2006,08,06,05,44,11.10
2006,08,06,05,45,11.10
2006,08,06,05,46,11.10
2006,08,06,05,47,11.10
2006,08,06,05,48,11.10
2006,08,06,05,49,11.20
2006,08,06,05,50,11.20
2006,08,06,05,51,11.20
2006,08,06,05,52,11.20
2006,08,06,05,53,11.30
2006,08,06,05,54,11.30
2006,08,06,05,55,11.40
2006,08,06,05,56,11.40
2006,08,06,05,57,11.40
2006,08,06,05,58,11.50
2006,08,06,05,59,11.60
2006,08,06,06,00,11.60
2006,08,06,06,01,11.60
2006,08,06,06,02,11.60
2006,08,06,06,03,11.60
2006,08,06,06,04,11.70
2006,08,06,06,05,11.70
2006,08,06,06,06,11.70
2006,08,06,06,07,11.70
2006,08,06,06,08,11.80
2006,08,06,06,09,11.80
2006,08,06,06,10,11.80
2006,08,06,06,11,11.80
2006,08,06,06,12,11.80
2006,08,06,06,13,11.80
2006,08,06,06,14,11.80
2006,08,06,06,15,11.80
2006,08,06,06,16,11.80
2006,08,06,06,17,11.80
2006,08,06,06,18,11.80
2006,08,06,06,19,11.80
2006,08,06,06,20,11.80
2006,08,06,06,21,11.80
2006,08,06,06,22,11.80
2006,08,06,06,23,11.80
2006,08,06,06,24,11.80
2006,08,06,06,25,11.80
2006,08,06,06,26,11.80
2006,08,06,06,27,11.80
2006,08,06,06,28,11.80
2006,08,06,06,29,11.80
2006,08,06,06,30,11.80
2006,08,06,06,31,11.80
2006,08,06,06,32,11.80
2006,08,06,06,33,11.80
2006,08,06,06,34,11.80
2006,08,06,06,35,11.80
2006,08,06,06,36,11.80
2006,08,06,06,37,11.70
2006,08,06,06,38,11.70
2006,08,06,06,39,11.70
2006,08,06,06,40,11.70
2006,08,06,06,41,11.70
2006,08,06,06,42,11.70
2006,08,06,06,43,11.60
2006,08,06,06,44,11.60
2006,08,06,06,45,11.50
2006,08,06,06,46,11.40
2006,08,06,06,47,11.30
2006,08,06,06,48,11.20
2006,08,06,06,49,11.20
2006,08,06,06,50,11.10
2006,08,06,06,51,11.10
2006,08,06,06,52,11.10
2006,08,06,06,53,11.10
2006,08,06,06,54,11.10
2006,08,06,06,55,11.10
2006,08,06,06,56,11.20
2006,08,06,06,57,11.30
2006,08,06,06,58,11.30
2006,08,06,06,59,11.40
2006,08,06,07,00,11.40
2006,08,06,07,01,11.50
2006,08,06,07,02,11.60
2006,08,06,07,03,11.70
2006,08,06,07,04,11.80
2006,08,06,07,05,11.80
2006,08,06,07,06,11.90
2006,08,06,07,07,12.00
2006,08,06,07,08,12.10
2006,08,06,07,09,12.20
2006,08,06,07,10,12.40
2006,08,06,07,11,12.50
2006,08,06,07,12,12.60
2006,08,06,07,13,12.80
2006,08,06,07,14,12.80
2006,08,06,07,15,12.90
2006,08,06,07,16,12.90
2006,08,06,07,17,13.00
2006,08,06,07,18,13.10
2006,08,06,07,19,13.10
2006,08,06,07,20,13.20
2006,08,06,07,21,13.30
2006,08,06,07,22,13.40
2006,08,06,07,23,13.50
2006,08,06,07,24,13.60
2006,08,06,07,25,13.70
2006,08,06,07,26,13.70
2006,08,06,07,27,13.70
2006,08,06,07,28,13.70
2006,08,06,07,29,13.70
2006,08,06,07,30,13.80
2006,08,06,07,31,13.80
2006,08,06,07,32,13.90
2006,08,06,07,33,13.90
2006,08,06,07,34,14.00
2006,08,06,07,35,14.00
2006,08,06,07,36,14.10
2006,08,06,07,37,14.20
2006,08,06,07,38,14.20
2006,08,06,07,39,14.40
2006,08,06,07,40,14.50
2006,08,06,07,41,14.60
2006,08,06,07,42,14.70
2006,08,06,07,43,14.80
2006,08,06,07,44,14.90
2006,08,06,07,45,14.90
2006,08,06,07,46,15.00
2006,08,06,07,47,15.00
2006,08,06,07,48,15.10
2006,08,06,07,49,15.20
2006,08,06,07,50,15.30
2006,08,06,07,51,15.30
2006,08,06,07,52,15.50
2006,08,06,07,53,15.50
2006,08,06,07,54,15.60
2006,08,06,07,55,15.80
2006,08,06,07,56,15.80
2006,08,06,07,57,16.00
2006,08,06,07,58,16.10
2006,08,06,07,59,16.20
2006,08,06,08,00,16.30
2006,08,06,08,01,16.40
2006,08,06,08,02,16.50
2006,08,06,08,03,16.70
2006,08,06,08,04,16.80
2006,08,06,08,05,16.90
2006,08,06,08,06,16.90
2006,08,06,08,07,17.00
2006,08,06,08,08,17.00
2006,08,06,08,09,17.10
2006,08,06,08,10,17.10
2006,08,06,08,11,17.00
2006,08,06,08,12,17.00
2006,08,06,08,13,17.00
2006,08,06,08,14,17.00
2006,08,06,08,15,17.10
2006,08,06,08,16,17.10
2006,08,06,08,17,17.10
2006,08,06,08,18,17.20
2006,08,06,08,19,17.30
2006,08,06,08,20,17.30
2006,08,06,08,21,17.30
2006,08,06,08,22,17.30
2006,08,06,08,23,17.30
2006,08,06,08,24,17.30
2006,08,06,08,25,17.30
2006,08,06,08,26,17.30
2006,08,06,08,27,17.30
2006,08,06,08,28,17.30
2006,08,06,08,29,17.30
2006,08,06,08,30,17.30
2006,08,06,08,31,17.30
2006,08,06,08,32,17.30
2006,08,06,08,33,17.30
2006,08,06,08,34,17.30
2006,08,06,08,35,17.20
2006,08,06,08,36,17.20
2006,08,06,08,37,17.20
2006,08,06,08,38,17.10
2006,08,06,08,39,17.10
2006,08,06,08,40,17.00
2006,08,06,08,41,17.00
2006,08,06,08,42,17.00
2006,08,06,08,43,17.00
2006,08,06,08,44,17.00
2006,08,06,08,45,17.00
2006,08,06,08,46,17.10
2006,08,06,08,47,17.10
2006,08,06,08,48,17.00
2006,08,06,08,49,17.00
2006,08,06,08,50,17.00
2006,08,06,08,51,16.90
2006,08,06,08,52,16.90
2006,08,06,08,53,16.80
2006,08,06,08,54,16.80
2006,08,06,08,55,16.70
2006,08,06,08,56,16.70
2006,08,06,08,57,16.70
2006,08,06,08,58,16.70
2006,08,06,08,59,16.70
2006,08,06,09,00,16.70
2006,08,06,09,01,16.80
2006,08,06,09,02,16.70
2006,08,06,09,03,16.70
2006,08,06,09,04,16.70
2006,08,06,09,05,16.70
2006,08,06,09,06,16.70
2006,08,06,09,07,16.70
2006,08,06,09,08,16.70
2006,08,06,09,09,16.70
2006,08,06,09,10,16.70
2006,08,06,09,11,16.70
2006,08,06,09,12,16.70
2006,08,06,09,13,16.70
2006,08,06,09,14,16.80
2006,08,06,09,15,16.90
2006,08,06,09,16,17.00
2006,08,06,09,17,17.10
2006,08,06,09,18,17.20
2006,08,06,09,19,17.20
2006,08,06,09,20,17.30
2006,08,06,09,21,17.30
2006,08,06,09,22,17.40
2006,08,06,09,23,17.40
2006,08,06,09,24,17.50
2006,08,06,09,25,17.50
2006,08,06,09,26,17.50
2006,08,06,09,27,17.50
2006,08,06,09,28,17.40
2006,08,06,09,29,17.40
2006,08,06,09,30,17.30
2006,08,06,09,31,17.30
2006,08,06,09,32,17.30
2006,08,06,09,33,17.30
2006,08,06,09,34,17.30
2006,08,06,09,35,17.30
2006,08,06,09,36,17.30
2006,08,06,09,37,17.40
2006,08,06,09,38,17.40
2006,08,06,09,39,17.50
2006,08,06,09,40,17.50
2006,08,06,09,41,17.50
2006,08,06,09,42,17.60
2006,08,06,09,43,17.70
2006,08,06,09,44,17.70
2006,08,06,09,45,17.80
2006,08,06,09,46,17.70
2006,08,06,09,47,17.70
2006,08,06,09,48,17.70
2006,08,06,09,49,17.60
2006,08,06,09,50,17.60
2006,08,06,09,51,17.50
2006,08,06,09,52,17.50
2006,08,06,09,53,17.50
2006,08,06,09,54,17.50
2006,08,06,09,55,17.60
2006,08,06,09,56,17.60
2006,08,06,09,57,17.70
2006,08,06,09,58,17.70
2006,08,06,09,59,17.70
2006,08,06,10,00,17.70
2006,08,06,10,01,17.80
2006,08,06,10,02,17.80
2006,08,06,10,03,17.90
2006,08,06,10,04,17.90
2006,08,06,10,05,18.00
2006,08,06,10,06,18.10
2006,08,06,10,07,18.10
2006,08,06,10,08,18.00
2006,08,06,10,09,17.90
2006,08,06,10,10,17.90
2006,08,06,10,11,17.90
2006,08,06,10,12,17.90
2006,08,06,10,13,18.00
2006,08,06,10,14,18.10
2006,08,06,10,15,18.10
2006,08,06,10,16,18.20
2006,08,06,10,17,18.20
2006,08,06,10,18,18.30
2006,08,06,10,19,18.30
2006,08,06,10,20,18.40
2006,08,06,10,21,18.50
2006,08,06,10,22,18.50
2006,08,06,10,23,18.50
2006,08,06,10,24,18.60
2006,08,06,10,25,18.60
2006,08,06,10,26,18.60
2006,08,06,10,27,18.70
2006,08,06,10,28,18.70
2006,08,06,10,29,18.70
2006,08,06,10,30,18.70
2006,08,06,10,31,18.80
2006,08,06,10,32,18.90
2006,08,06,10,33,18.90
2006,08,06,10,34,18.90
2006,08,06,10,35,18.90
2006,08,06,10,36,18.90
2006,08,06,10,37,18.90
2006,08,06,10,38,18.80
2006,08,06,10,39,18.80
2006,08,06,10,40,18.80
2006,08,06,10,41,18.80
2006,08,06,10,42,18.80
2006,08,06,10,43,18.90
2006,08,06,10,44,18.90
2006,08,06,10,45,19.00
2006,08,06,10,46,19.10
2006,08,06,10,47,19.10
2006,08,06,10,48,19.30
2006,08,06,10,49,19.40
2006,08,06,10,50,19.60
2006,08,06,10,51,19.70
2006,08,06,10,52,19.70
2006,08,06,10,53,19.70
2006,08,06,10,54,19.70
2006,08,06,10,55,19.60
2006,08,06,10,56,19.50
2006,08,06,10,57,19.50
2006,08,06,10,58,19.40
2006,08,06,10,59,19.40
2006,08,06,11,00,19.30
2006,08,06,11,01,19.20
2006,08,06,11,02,19.20
2006,08,06,11,03,19.10
2006,08,06,11,04,19.10
2006,08,06,11,05,19.10
2006,08,06,11,06,19.00
2006,08,06,11,07,18.90
2006,08,06,11,08,18.90
2006,08,06,11,09,18.90
2006,08,06,11,10,19.10
2006,08,06,11,11,19.10
2006,08,06,11,12,19.10
2006,08,06,11,13,19.20
2006,08,06,11,14,19.30
2006,08,06,11,15,19.40
2006,08,06,11,16,19.40
2006,08,06,11,17,19.50
2006,08,06,11,18,19.50
2006,08,06,11,19,19.50
2006,08,06,11,20,19.40
2006,08,06,11,21,19.40
2006,08,06,11,22,19.40
2006,08,06,11,23,19.50
2006,08,06,11,24,19.60
2006,08,06,11,25,19.70
2006,08,06,11,26,19.80
2006,08,06,11,27,19.90
2006,08,06,11,28,20.00
2006,08,06,11,29,20.10
2006,08,06,11,30,20.20
2006,08,06,11,31,20.20
2006,08,06,11,32,20.30
2006,08,06,11,33,20.30
2006,08,06,11,34,20.30
2006,08,06,11,35,20.30
2006,08,06,11,36,20.30
2006,08,06,11,37,20.30
2006,08,06,11,38,20.20
2006,08,06,11,39,20.20
2006,08,06,11,40,20.30
2006,08,06,11,41,20.30
2006,08,06,11,42,20.40
2006,08,06,11,43,20.40
2006,08,06,11,44,20.40
2006,08,06,11,45,20.40
2006,08,06,11,46,20.40
2006,08,06,11,47,20.50
2006,08,06,11,48,20.60
2006,08,06,11,49,20.80
2006,08,06,11,50,20.90
2006,08,06,11,51,20.90
2006,08,06,11,52,20.80
2006,08,06,11,53,20.80
2006,08,06,11,54,20.70
2006,08,06,11,55,20.70
2006,08,06,11,56,20.70
2006,08,06,11,57,20.70
2006,08,06,11,58,20.80
2006,08,06,11,59,20.80
2006,08,06,12,00,20.80
2006,08,06,12,01,20.90
2006,08,06,12,02,20.80
2006,08,06,12,03,20.80
2006,08,06,12,04,20.80
2006,08,06,12,05,20.90
2006,08,06,12,06,20.90
2006,08,06,12,07,20.90
2006,08,06,12,08,20.90
2006,08,06,12,09,20.90
2006,08,06,12,10,20.90
2006,08,06,12,11,20.90
2006,08,06,12,12,20.90
2006,08,06,12,13,20.90
2006,08,06,12,14,21.00
2006,08,06,12,15,21.00
2006,08,06,12,16,21.10
2006,08,06,12,17,21.20
2006,08,06,12,18,21.20
2006,08,06,12,19,21.30
2006,08,06,12,20,21.30
2006,08,06,12,21,21.40
2006,08,06,12,22,21.40
2006,08,06,12,23,21.40
2006,08,06,12,24,21.30
2006,08,06,12,25,21.30
2006,08,06,12,26,21.30
2006,08,06,12,27,21.30
2006,08,06,12,28,21.30
2006,08,06,12,29,21.30
2006,08,06,12,30,21.30
2006,08,06,12,31,21.30
2006,08,06,12,32,21.40
2006,08,06,12,33,21.40
2006,08,06,12,34,21.50
2006,08,06,12,35,21.60
2006,08,06,12,36,21.60
2006,08,06,12,37,21.60
2006,08,06,12,38,21.60
2006,08,06,12,39,21.60
2006,08,06,12,40,21.60
2006,08,06,12,41,21.60
2006,08,06,12,42,21.60
2006,08,06,12,43,21.50
2006,08,06,12,44,21.40
2006,08,06,12,45,21.40
2006,08,06,12,46,21.50
2006,08,06,12,47,21.60
2006,08,06,12,48,21.70
2006,08,06,12,49,21.80
2006,08,06,12,50,21.90
2006,08,06,12,51,21.90
2006,08,06,12,52,21.90
2006,08,06,12,53,21.90
2006,08,06,12,54,21.80
2006,08,06,12,55,21.80
2006,08,06,12,56,21.80
2006,08,06,12,57,21.80
2006,08,06,12,58,21.90
2006,08,06,12,59,21.90
2006,08,06,13,00,21.90
2006,08,06,13,01,22.00
2006,08,06,13,02,22.00
2006,08,06,13,03,22.00
2006,08,06,13,04,22.00
2006,08,06,13,05,22.00
2006,08,06,13,06,22.00
2006,08,06,13,07,21.90
2006,08,06,13,08,22.00
2006,08,06,13,09,22.00
2006,08,06,13,10,22.10
2006,08,06,13,11,22.20
2006,08,06,13,12,22.30
2006,08,06,13,13,22.50
2006,08,06,13,14,22.60
2006,08,06,13,15,22.80
2006,08,06,13,16,22.90
2006,08,06,13,17,22.90
2006,08,06,13,18,23.00
2006,08,06,13,19,23.10
2006,08,06,13,20,23.20
2006,08,06,13,21,23.20
2006,08,06,13,22,23.30
2006,08,06,13,23,23.30
2006,08,06,13,24,23.40
2006,08,06,13,25,23.40
2006,08,06,13,26,23.50
2006,08,06,13,27,23.60
2006,08,06,13,28,23.70
2006,08,06,13,29,23.70
2006,08,06,13,30,23.80
2006,08,06,13,31,24.00
2006,08,06,13,32,24.10
2006,08,06,13,33,24.30
2006,08,06,13,34,24.40
2006,08,06,13,35,24.70
2006,08,06,13,36,24.80
2006,08,06,13,37,24.90
2006,08,06,13,38,24.90
2006,08,06,13,39,24.80
2006,08,06,13,40,24.80
2006,08,06,13,41,24.80
2006,08,06,13,42,24.80
2006,08,06,13,43,24.80
2006,08,06,13,44,24.80
2006,08,06,13,45,24.70
2006,08,06,13,46,24.70
2006,08,06,13,47,24.80
2006,08,06,13,48,24.80
2006,08,06,13,49,24.70
2006,08,06,13,50,24.80
2006,08,06,13,51,24.70
2006,08,06,13,52,24.60
2006,08,06,13,53,24.50
2006,08,06,13,54,24.50
2006,08,06,13,55,24.50
2006,08,06,13,56,24.60
2006,08,06,13,57,24.80
2006,08,06,13,58,24.80
2006,08,06,13,59,24.80
2006,08,06,14,00,24.80
2006,08,06,14,01,24.80
2006,08,06,14,02,24.60
2006,08,06,14,03,24.50
2006,08,06,14,04,24.40
2006,08,06,14,05,24.40
2006,08,06,14,06,24.40
2006,08,06,14,07,24.50
2006,08,06,14,08,24.60
2006,08,06,14,09,24.70
2006,08,06,14,10,24.70
2006,08,06,14,11,24.70
2006,08,06,14,12,24.70
2006,08,06,14,13,24.80
2006,08,06,14,14,24.80
2006,08,06,14,15,24.90
2006,08,06,14,16,24.90
2006,08,06,14,17,25.00
2006,08,06,14,18,25.00
2006,08,06,14,19,25.00
2006,08,06,14,20,25.00
2006,08,06,14,21,24.90
2006,08,06,14,22,24.70
2006,08,06,14,23,24.70
2006,08,06,14,24,24.70
2006,08,06,14,25,24.80
2006,08,06,14,26,24.80
2006,08,06,14,27,24.90
2006,08,06,14,28,24.90
2006,08,06,14,29,24.80
2006,08,06,14,30,24.80
2006,08,06,14,31,24.70
2006,08,06,14,32,24.60
2006,08,06,14,33,24.60
2006,08,06,14,34,24.60
2006,08,06,14,35,24.70
2006,08,06,14,36,24.80
2006,08,06,14,37,24.90
2006,08,06,14,38,24.90
2006,08,06,14,39,24.90
2006,08,06,14,40,24.90
2006,08,06,14,41,24.80
2006,08,06,14,42,24.80
2006,08,06,14,43,24.80
2006,08,06,14,44,24.80
2006,08,06,14,45,24.90
2006,08,06,14,46,24.90
2006,08,06,14,47,24.90
2006,08,06,14,48,24.80
2006,08,06,14,49,24.60
2006,08,06,14,50,24.50
2006,08,06,14,51,24.50
2006,08,06,14,52,24.50
2006,08,06,14,53,24.50
2006,08,06,14,54,24.40
2006,08,06,14,55,24.30
2006,08,06,14,56,24.40
2006,08,06,14,57,24.50
2006,08,06,14,58,24.50
2006,08,06,14,59,24.50
2006,08,06,15,00,24.50
2006,08,06,15,01,24.50
2006,08,06,15,02,24.30
2006,08,06,15,03,24.00
2006,08,06,15,04,23.80
2006,08,06,15,05,23.70
2006,08,06,15,06,23.60
2006,08,06,15,07,23.60
2006,08,06,15,08,23.60
2006,08,06,15,09,23.60
2006,08,06,15,10,23.60
2006,08,06,15,11,23.60
2006,08,06,15,12,23.70
2006,08,06,15,13,23.70
2006,08,06,15,14,23.70
2006,08,06,15,15,23.70
2006,08,06,15,16,23.80
2006,08,06,15,17,23.80
2006,08,06,15,18,23.80
2006,08,06,15,19,23.80
2006,08,06,15,20,23.80
2006,08,06,15,21,23.90
2006,08,06,15,22,23.90
2006,08,06,15,23,24.00
2006,08,06,15,24,24.10
2006,08,06,15,25,24.00
2006,08,06,15,26,23.90
2006,08,06,15,27,23.80
2006,08,06,15,28,23.90
2006,08,06,15,29,23.90
2006,08,06,15,30,24.10
2006,08,06,15,31,24.10
2006,08,06,15,32,24.10
2006,08,06,15,33,24.00
2006,08,06,15,34,23.90
2006,08,06,15,35,23.70
2006,08,06,15,36,23.70
2006,08,06,15,37,23.70
2006,08,06,15,38,23.70
2006,08,06,15,39,23.60
2006,08,06,15,40,23.40
2006,08,06,15,41,23.20
2006,08,06,15,42,23.00
2006,08,06,15,43,22.90
2006,08,06,15,44,22.60
2006,08,06,15,45,22.50
2006,08,06,15,46,22.50
2006,08,06,15,47,22.50
2006,08,06,15,48,22.60
2006,08,06,15,49,22.60
2006,08,06,15,50,22.50
2006,08,06,15,51,22.40
2006,08,06,15,52,22.50
2006,08,06,15,53,22.60
2006,08,06,15,54,22.70
2006,08,06,15,55,22.70
2006,08,06,15,56,22.80
2006,08,06,15,57,22.90
2006,08,06,15,58,22.90
2006,08,06,15,59,22.90
2006,08,06,16,00,22.90
2006,08,06,16,01,22.90
2006,08,06,16,02,22.80
2006,08,06,16,03,22.70
2006,08,06,16,04,22.60
2006,08,06,16,05,22.60
2006,08,06,16,06,22.50
2006,08,06,16,07,22.40
2006,08,06,16,08,22.30
2006,08,06,16,09,22.30
2006,08,06,16,10,22.40
2006,08,06,16,11,22.40
2006,08,06,16,12,22.40
2006,08,06,16,13,22.30
2006,08,06,16,14,22.30
2006,08,06,16,15,22.20
2006,08,06,16,16,22.20
2006,08,06,16,17,22.20
2006,08,06,16,18,22.30
2006,08,06,16,19,22.30
2006,08,06,16,20,22.40
2006,08,06,16,21,22.60
2006,08,06,16,22,22.60
2006,08,06,16,23,22.60
2006,08,06,16,24,22.60
2006,08,06,16,25,22.60
2006,08,06,16,26,22.70
2006,08,06,16,27,22.80
2006,08,06,16,28,22.70
2006,08,06,16,29,22.60
2006,08,06,16,30,22.60
2006,08,06,16,31,22.70
2006,08,06,16,32,22.70
2006,08,06,16,33,22.70
2006,08,06,16,34,22.80
2006,08,06,16,35,22.90
2006,08,06,16,36,22.90
2006,08,06,16,37,22.90
2006,08,06,16,38,22.80
2006,08,06,16,39,22.70
2006,08,06,16,40,22.60
2006,08,06,16,41,22.60
2006,08,06,16,42,22.50
2006,08,06,16,43,22.50
2006,08,06,16,44,22.50
2006,08,06,16,45,22.60
2006,08,06,16,46,22.60
2006,08,06,16,47,22.60
2006,08,06,16,48,22.60
2006,08,06,16,49,22.70
2006,08,06,16,50,22.70
2006,08,06,16,51,22.80
2006,08,06,16,52,22.90
2006,08,06,16,53,22.90
2006,08,06,16,54,23.00
2006,08,06,16,55,23.20
2006,08,06,16,56,23.30
2006,08,06,16,57,23.30
2006,08,06,16,58,23.40
2006,08,06,16,59,23.50
2006,08,06,17,00,23.50
2006,08,06,17,01,23.60
2006,08,06,17,02,23.60
2006,08,06,17,03,23.70
2006,08,06,17,04,23.70
2006,08,06,17,05,23.80
2006,08,06,17,06,23.90
2006,08,06,17,07,23.90
2006,08,06,17,08,24.00
2006,08,06,17,09,24.10
2006,08,06,17,10,24.10
2006,08,06,17,11,24.10
2006,08,06,17,12,24.20
2006,08,06,17,13,24.20
2006,08,06,17,14,24.40
2006,08,06,17,15,24.40
2006,08,06,17,16,24.50
2006,08,06,17,17,24.50
2006,08,06,17,18,24.50
2006,08,06,17,19,24.60